Simultaneous Nadir Overpasses (SNOs) Predictions

Prediction of SNOs between GOES-16 and AQUA Satellite Orbit:

Table of predicted SNOs for the next 14.0 days since TLE Epoch: 3/30/2017
Index Date Time (GOES-16) GOES-16 Lat,Lon AQUA Lat,Lon Distance(km) Time Diff (sec)
1 03/31/2017 07:40:35 -0.00, -89.50 0.28, -90.85 153.45 80
2 04/02/2017 07:25:41 -0.00, -89.50 -0.35, -87.88 184.10 80
3 04/02/2017 19:47:04 0.00, -89.49 -0.77, -93.07 406.65 80
4 04/04/2017 19:34:50 0.00, -89.50 -0.12, -90.11 68.55 80
5 04/06/2017 19:25:15 0.00, -89.51 0.48, -87.13 270.21 80
6 04/07/2017 07:46:29 -0.00, -89.53 0.61, -92.29 314.43 80
7 04/09/2017 07:31:36 -0.00, -89.55 -0.06, -89.33 25.15 80
8 04/11/2017 07:19:21 -0.00, -89.57 -0.68, -86.36 365.27 80
9 04/11/2017 19:40:43 0.00, -89.57 -0.41, -91.55 225.12 80
10 04/13/2017 19:31:08 0.00, -89.59 0.22, -88.58 115.59 80




NCC Satellite Simultaneous Nadir Overpasses (SNOs) Prediction Service
